Fulton, NY

8:28 PM EST on February 26, 2017 (GMT -0500)
Oswego County

Weather History for KFZY - August, 2013

Change the Weather History Date:

Thursday, August 1, 2013

  Actual Average (KSYR) Record (KSYR)
Temperature  
Mean Temperature 70 °F -  
Max Temperature 79 °F 82 °F 96 °F (1933)
Min Temperature 62 °F 60 °F 46 °F (1947)
Cooling Degree Days 5    
Growing Degree Days 20 (Base 50)    
Moisture  
Dew Point 64 °F    
Average Humidity 83    
Maximum Humidity 94    
Minimum Humidity 65    
Precipitation  
Precipitation 0.47 in - - ()
Sea Level Pressure  
Sea Level Pressure 29.82 in    
Wind  
Wind Speed 6 mph (SW)    
Max Wind Speed 20 mph    
Max Gust Speed 30 mph    
Visibility 7 miles    
Events Rain , Thunderstorm    
Averages and records for this station are not official NWS values.
T = Trace of Precipitation, MM = Missing Value Source: NWS Daily Summary

Daily Weather History Graph

Daily Weather History Graph

Search for Another Location

Airport or City:

Trip Planner

Search our weather history database for the weather conditions in past years. The results will help you decide how hot, cold, wet, or windy it might be!

Date:

Astronomy

Aug. 01, 2013 Rise Set
Actual Time 5:55 AM EDT 8:27 PM EDT
Civil Twilight 5:23 AM EDT 8:59 PM EDT
Nautical Twilight 4:42 AM EDT 9:40 PM EDT
Astronomical Twilight 3:56 AM EDT 10:25 PM EDT
Moon 1:29 AM EDT (8/1) 4:35 PM EDT (8/1)
Length of Visible Light 15h 36m
Length of Day
14h 31m
Waning Crescent, 23% of the Moon is Illuminated
Aug 1
Waning Crescent
Aug 6
New
Aug 14
First Quarter
Aug 20
Full
Aug 28
Last Quarter

Hourly Weather History & Observations

Time (EDT) Temp. Dew Point Humidity Pressure Visibility Wind Dir Wind Speed Gust Speed Precip Events Conditions
12:54 AM 64.9 °F 57.9 °F 78% 29.94 in 10.0 mi Calm Calm - N/A   Clear
1:54 AM 66.0 °F 57.9 °F 75% 29.92 in 10.0 mi Variable 3.5 mph - N/A   Clear
2:54 AM 66.0 °F 57.9 °F 75% 29.89 in 10.0 mi Variable 4.6 mph - N/A   Clear
3:54 AM 66.0 °F 57.9 °F 75% 29.88 in 10.0 mi SE 3.5 mph - N/A   Clear
4:54 AM 66.0 °F 57.9 °F 75% 29.86 in 10.0 mi ESE 4.6 mph - N/A   Clear
5:54 AM 66.0 °F 59.0 °F 78% 29.86 in 10.0 mi ESE 3.5 mph - N/A   Scattered Clouds
6:54 AM 66.0 °F 61.0 °F 84% 29.84 in 8.0 mi Variable 3.5 mph - N/A   Mostly Cloudy
7:54 AM 68.0 °F 62.1 °F 81% 29.85 in 7.0 mi SE 3.5 mph - N/A   Overcast
8:54 AM 68.0 °F 63.0 °F 84% 29.83 in 6.0 mi Calm Calm - 0.00 in   Haze
9:24 AM 68.0 °F 64.4 °F 88% 29.83 in 1.8 mi South 4.6 mph - 0.04 in Rain Rain
9:43 AM 66.2 °F 64.4 °F 94% 29.83 in 1.0 mi South 9.2 mph - 0.13 in Rain Heavy Rain
9:52 AM 66.2 °F 64.4 °F 94% 29.83 in 0.8 mi South 9.2 mph - 0.24 in Rain Heavy Rain
9:54 AM 66.9 °F 64.9 °F 93% 29.83 in 0.8 mi South 9.2 mph - 0.26 in Rain Heavy Rain
10:01 AM 66.2 °F 64.4 °F 94% 29.81 in 1.0 mi South 8.1 mph - 0.03 in Rain Heavy Rain
10:07 AM 66.2 °F 64.4 °F 94% 29.80 in 1.2 mi Variable 4.6 mph - 0.04 in Rain Rain
10:13 AM 68.0 °F 64.4 °F 88% 29.81 in 2.0 mi SSE 5.8 mph - 0.04 in Rain Light Rain
10:27 AM 68.0 °F 66.2 °F 94% 29.81 in 3.0 mi Variable 3.5 mph - 0.04 in Rain Light Rain
10:54 AM 69.1 °F 66.0 °F 90% 29.82 in 4.0 mi South 8.1 mph - 0.06 in Rain Light Rain
11:35 AM 69.8 °F 66.2 °F 88% 29.81 in 5.0 mi South 4.6 mph - 0.00 in   Overcast
11:54 AM 71.1 °F 66.9 °F 87% 29.80 in 6.0 mi South 9.2 mph - 0.00 in   Overcast
12:54 PM 73.0 °F 66.0 °F 79% 29.79 in 10.0 mi SSW 6.9 mph - N/A   Overcast
1:03 PM 73.4 °F 66.2 °F 78% 29.79 in 10.0 mi South 8.1 mph - N/A   Overcast
1:18 PM 73.4 °F 66.2 °F 78% 29.79 in 10.0 mi South 8.1 mph - N/A   Overcast
1:54 PM 75.0 °F 66.9 °F 76% 29.78 in 10.0 mi South 8.1 mph - N/A   Overcast
2:28 PM 78.8 °F 68.0 °F 69% 29.77 in 10.0 mi SSW 9.2 mph - N/A   Mostly Cloudy
2:35 PM 78.8 °F 66.2 °F 65% 29.76 in 10.0 mi South 9.2 mph - N/A Thunderstorm Mostly Cloudy
2:54 PM 75.0 °F 64.9 °F 71% 29.78 in 10.0 mi WSW 19.6 mph 29.9 mph N/A Thunderstorm Thunderstorm
3:04 PM 68.0 °F 64.4 °F 88% 29.79 in 3.0 mi West 17.3 mph 29.9 mph 0.06 in Rain , Thunderstorm Thunderstorms and Rain
3:06 PM 68.0 °F 64.4 °F 88% 29.79 in 1.5 mi WSW 13.8 mph 26.5 mph 0.12 in Rain , Thunderstorm Heavy Thunderstorms and Rain
3:17 PM 68.0 °F 64.4 °F 88% 29.79 in 3.0 mi West 10.4 mph - 0.15 in Rain , Thunderstorm Light Thunderstorms and Rain
3:21 PM 69.8 °F 64.4 °F 83% 29.79 in 9.0 mi West 9.2 mph - 0.15 in Rain , Thunderstorm Light Thunderstorms and Rain
3:45 PM 69.8 °F 66.2 °F 88% 29.80 in 10.0 mi West 11.5 mph - 0.15 in   Overcast
3:54 PM 70.0 °F 66.0 °F 87% 29.80 in 10.0 mi West 9.2 mph - 0.15 in   Overcast
4:36 PM 71.6 °F 66.2 °F 83% 29.81 in 10.0 mi WNW 11.5 mph - N/A   Mostly Cloudy
4:47 PM 71.6 °F 66.2 °F 83% 29.81 in 10.0 mi WNW 10.4 mph - N/A   Overcast
4:54 PM 73.0 °F 66.0 °F 79% 29.81 in 10.0 mi WNW 12.7 mph 18.4 mph N/A   Mostly Cloudy
5:19 PM 73.4 °F 64.4 °F 73% 29.81 in 10.0 mi WNW 10.4 mph - N/A   Scattered Clouds
5:54 PM 73.0 °F 63.0 °F 71% 29.81 in 10.0 mi WNW 11.5 mph - N/A   Partly Cloudy
6:54 PM 73.0 °F 63.0 °F 71% 29.82 in 10.0 mi West 9.2 mph - N/A   Clear
7:54 PM 70.0 °F 62.1 °F 76% 29.83 in 10.0 mi WSW 5.8 mph - N/A   Clear
8:54 PM 66.9 °F 61.0 °F 81% 29.83 in 10.0 mi Calm Calm - N/A   Clear
9:54 PM 62.1 °F 59.0 °F 90% 29.84 in 10.0 mi Calm Calm - N/A   Scattered Clouds
10:54 PM 62.1 °F 59.0 °F 90% 29.83 in 10.0 mi West 3.5 mph - N/A   Clear
11:54 PM 64.0 °F 60.1 °F 87% 29.84 in 10.0 mi SW 3.5 mph - N/A   Scattered Clouds